User: anonymous   Login
Location: Unspecified
(0.0000°N, 0.0000°E)
Time: 14:07:08
(UTC+02:00)
Language:

Iridium 15 - Orbit

View from above orbital plane
View from above orbital plane
View from above satellite
View from above satellite

Ground track
Ground track

The orbit data is extracted from the following two-line orbital elements,

1 24869U 97034A   16270.55647738  .00000127  00000-0  38119-4 0  9999
2 24869  86.3955 132.3438 0002288  88.2254 271.9204 14.34222422  6120
Epoch (UTC): 26 September 2016 13:21:19
Eccentricity: 0.0002288
inclination: 86.3955°
perigee height: 776 km
apogee height: 779 km
right ascension of ascending node: 132.3438°
argument of perigee: 88.2254°
revolutions per day: 14.34222422
mean anomaly at epoch: 271.9204°
orbit number at epoch: 612

The dashed part of the orbit path shows where the satellite is in the earth's shadow,  

DLR